"Pseudo-MPEC" for C28UCC2

Created 2020 Feb 28 3:07:09 UT using Find_Orb

Click here for an explanation of pseudo-MPECs

 
 Astrometry: 
     C28UCC2  C2020 02 26.14456 09 15 40.31 +14 57 38.1    ~2Q4q       VNEOCPG96
     C28UCC2  C2020 02 26.15011 09 15 42.38 +14 58 11.7    ~2Q4q 20.2 GVNEOCPG96
     C28UCC2  C2020 02 26.15567 09 15 44.39 +14 58 44.7    ~2Q4q 20.0 GVNEOCPG96
     C28UCC2  C2020 02 26.16122 09 15 46.33 +14 59 17.7    ~2Q4q 20.2 GVNEOCPG96
     C28UCC2  C2020 02 26.18290 09 15 53.90 +15 01 24.8    ~2Q57       VNEOCPI52
     C28UCC2  C2020 02 26.18332 09 15 54.10 +15 01 28.1    ~2Q57       VNEOCPI52
     C28UCC2  C2020 02 26.18374 09 15 54.30 +15 01 30.7    ~2Q57       VNEOCPI52
     C28UCC2  C2020 02 26.18416 09 15 54.40 +15 01 32.3    ~2Q57       VNEOCPI52
     C28UCC2 !C2020 02 26+=kI;dOcT?w,^n5taZU@hwKk,3qd$uoA@r6*!8AQ.'5pddP?^?/d673
     C28UCC2 !C2020 02 26w[gU06AstrometrywP/gZdgL_?[f.]\r!gk9,.IJ0+wUp4,Fwt[;673
     C28UCC2  C2020 02 26.76013 09 19 43.13 +15 52 47.5    ~2QIb 20.6 VVNEOCP033
     C28UCC2  C2020 02 26.76197 09 19 43.77 +15 52 57.0    ~2QIb 20.2 VVNEOCP033
     C28UCC2  C2020 02 26.76380 09 19 44.44 +15 53 07.2    ~2QIb 20.1 VVNEOCP033
     C28UCC2 KC2020 02 26;-!4hgw$I'k;AQID!3D`1redacted;S0y`clickWP48kOyFBh;HlK63
     C28UCC2 KC2020 02 26dO7%JBNHwbl7MH`%0NqUWpulj6:6!D'ZnIc=%c7Rc_2#BQiw/:S^K63
     C28UCC2 KC2020 02 26,wuGgPkn09qsVqxtc*7H;A8F0j/JCnWAC$bMIW]b(1scm=H*?dy`K63
     C28UCC2 KC2020 02 26WKGcuD1,?.d([39sPA*IuGp8oTXZ.rk.ClK?6]%Vkj8'#Q-r*0nQJ04
     C28UCC2 KC2020 02 26`G5r[Ck+4rV-.m39#0@Za@B4$R\/YB0H;Ek,KPtw`(`To$GhereLJ04
     C28UCC2 KC2020 02 26iA,P;Nds[(nCm88ax7r;wT!+IZROIs\Shdrayrjmo7/-Op_Ga2c_J04
     C28UCC2  C2020 02 27.18304 09 22 16.69 +16 28 53.4    ~2R4q 20.6 GVNEOCPI52
     C28UCC2  C2020 02 27.18815 09 22 18.25 +16 29 18.0    ~2R4q       VNEOCPI52
     C28UCC2  C2020 02 27.18892 09 22 18.48 +16 29 22.2    ~2R4q       VNEOCPI52
     C28UCC2 KC2020 02 27fjjxws!JUU9tMsEDAo[Pe!2bNO!nnF8FC2GAW:;^oi]mdRO:Unoq711
     C28UCC2 KC2020 02 27Z2y03mXY,XVZX_krUOAx35beVt2El8DVK8h_xGop''UsTdu50$!N711
     C28UCC2 KC2020 02 275O`;u-S?=X1,qcSAY4HiaSdxpybNT7=*QXY8eRVxbo'oja)9Pko]711
     C28UCC2 KC2020 02 27/GS.0\=!y!,24EwfUO*qE2f5MI(#nx`#ynfc*]d]8KoLpG8%vwvu734
     C28UCC2 KC2020 02 27ce6emm4ESky!Wforb+n'i,R8XH9K'j#explanationees*U^RHLQ734
     C28UCC2 KC2020 02 27UPWO9bD@+PLDcN74U'j2GU+Qdi)2p[A4exc$;-xF8$D!R6i-=Y?d734
     C28UCC2 KC2020 02 27hJpRnSd4_x8;XSI1S;5Rphh_O+roJ:s@Fgs+bW)oyNHH9=).3KvL734
     C28UCC2 KC2020 02 27'xI+8C%8dSVp;3S1)R9+TSaq6o^ak0;MbeXb^lkHv`6*qs6d$kq@734

Station data:
(033) Karl Schwarzschild Observatory, Tautenburg  (N50.980140 E11.711240)
   Germany. 1.3-m Schmidt.
(673) Table Mountain Observatory, Wrightwood  (N34.381488 W117.682170)
   US/California.  Observer W. M. Owen Jr. 0.61-m f/16 reflector + CCD.
(711) McDonald Observatory, Fort Davis  (N30.671481 W104.021500)  US/Texas.
   0.76-m f/3.0 reflector.
(734) Farpoint Observatory, Eskridge  (N38.890107 W96.001400)  US/Kansas.
   Observer G. Hug. 0.69-m reflector + CCD.
(G96) Mt. Lemmon Survey  (N32.442754 W110.788720)  US/Arizona.  Observers T.
   A. Pruyne, B. M. Africano, E. J. Christensen, G. A. Farneth, D. C. Fuls,
   A. R. Gibbs, A. D. Grauer, H. Gröller, J. A. Johnson, R. A. Kowalski, S.
   M. Larson, G. J. Leonard, D. Rankin, R. L. Seaman, F. C. Shelly. 1.5-m
   reflector + 10K CCD.
(I52) Steward Observatory, Mt. Lemmon Station  (N32.442547 W110.788920)
   US/Arizona.  Observers T. A. Pruyne, B. M. Africano, E. J. Christensen, G.
   A. Farneth, D. C. Fuls, A. R. Gibbs, A. D. Grauer, H. Gröller, J. A.
   Johnson, R. A. Kowalski, S. M. Larson, G. J. Leonard, D. Rankin, R. L.
   Seaman, F. C. Shelly. 1.0-m reflector + CCD.
(J04) ESA Optical Ground Station, Tenerife  (N28.300924 W16.511830)  Canary
   Islands (Spain).  Observer D. Abreu. Measurers M. Micheli, D. Koschny, E.
   Schwab, M. Busch, A. Knöfel. 1.0-m f/4.4 reflector + CCD.
(K63) G. Pascoli Observatory, Castelvecchio Pascoli  (N44.082410 E10.462000)
   Italy.

Orbital elements:  C28UCC2
   Perihelion 2019 Dec 16.247257 +/- 0.0349 TT =  5:56:03 (JD 2458833.747257)
Epoch 2020 Feb 27.0 TT = JDT 2458906.5   Earth MOID: 0.0135   AutoNEOCP
M  61.53083811 +/- 0.06             (J2000 ecliptic)
n   0.84575283 +/- 0.00056          Peri.  271.09039 +/- 0.06
a   1.10740651 +/- 0.000489         Node   156.26496 +/- 0.0020
e   0.2451753 +/- 0.000634          Incl.    5.40633 +/- 0.013
P   1.17/425.65d           H 26.0   G  0.15   U  7.7  
q 0.83589776 +/- 0.000502    Q 1.37891526 +/- 0.00122
From 30 observations 2020 Feb. 26-27 (26.3 hr); mean residual 0".46
Residuals in arcseconds: 
200226 G96  .32-  .43-    200226 033  .49-  .10-    200227 I52  .22-  .62-    
200226 G96  .59+  .18+    200226 033  .60-  .42-    200227 I52  .23-  .20-    
200226 G96  .73+  .20+    200226 033  .22-  .03+    200227 711  .23+  .04+    
200226 G96  .05+  .35+    200226 K63  .58+  .45-    200227 711  .48+  .55+    
200226 I52  1.5-  .18-    200226 K63  1.4+  .46+    200227 711  .38+  .11+    
200226 I52  .70-  .66+    200226 K63  .88+  .44+    200227 734  .02-  .05+    
200226 I52  .06+  .80+    200226 J04  .24-  .17-    200227 734  .22-  .09+    
200226 I52  .62-  .06-    200226 J04  .26-  .00     200227 734  .32-  .29+    
200226 673  .09+  .00     200226 J04  .41-  .27-    200227 734  .09-  .27+    
200226 673  .07-  .09-    200227 I52  .60-  .12-    200227 734  .33-  .19-    

Ephemerides (geocentric):
Date (UTC) HH   RA              Dec         delta   r     elong  mag " sig PA
---- -- -- --  -------------   -----------  ------ ------ -----  --- ---- ---
2020 02 28 03  09 27 27.042   +17 39 06.00  .05511 1.0423 159.7 20.8 .157 110
2020 02 28 04  09 27 40.101   +17 41 55.07  .05528 1.0424 159.7 20.8 .159 108
2020 02 28 05  09 27 53.091   +17 44 42.96  .05546 1.0426 159.7 20.8 .161 106
2020 02 28 06  09 28 06.011   +17 47 29.69  .05564 1.0428 159.7 20.8 .163 104
2020 02 28 07  09 28 18.862   +17 50 15.26  .05582 1.0430 159.7 20.8 .166 101
2020 02 28 08  09 28 31.645   +17 52 59.69  .05599 1.0431 159.7 20.8 .169  99
2020 02 28 09  09 28 44.360   +17 55 42.98  .05617 1.0433 159.7 20.9 .172  97
2020 02 28 10  09 28 57.009   +17 58 25.14  .05635 1.0435 159.6 20.9 .176  95
2020 02 28 11  09 29 09.591   +18 01 06.19  .05653 1.0437 159.6 20.9 .180  93
2020 02 28 12  09 29 22.107   +18 03 46.13  .05670 1.0438 159.6 20.9 .184  91
2020 02 28 13  09 29 34.557   +18 06 24.98  .05688 1.0440 159.6 20.9 .188  89
2020 02 28 14  09 29 46.943   +18 09 02.74  .05706 1.0442 159.6 20.9 .193  87
2020 02 28 15  09 29 59.264   +18 11 39.42  .05724 1.0443 159.6 20.9 .198  85
2020 02 28 16  09 30 11.521   +18 14 15.03  .05742 1.0445 159.5 20.9 .203  84
2020 02 28 17  09 30 23.715   +18 16 49.58  .05760 1.0447 159.5 20.9 .208  82
2020 02 28 18  09 30 35.846   +18 19 23.08  .05778 1.0449 159.5 20.9 .214  81
2020 02 28 19  09 30 47.915   +18 21 55.54  .05795 1.0450 159.5 20.9 .219  79
2020 02 28 20  09 30 59.923   +18 24 26.97  .05813 1.0452 159.5 20.9 .225  78
2020 02 28 21  09 31 11.868   +18 26 57.38  .05831 1.0454 159.4 20.9 .232  76
2020 02 28 22  09 31 23.753   +18 29 26.76  .05849 1.0455 159.4 20.9 .238  75
2020 02 28 23  09 31 35.578   +18 31 55.14  .05867 1.0457 159.4 21.0 .244  74
2020 02 29 00  09 31 47.343   +18 34 22.53  .05885 1.0459 159.4 21.0 .251  72
2020 02 29 01  09 31 59.049   +18 36 48.92  .05903 1.0461 159.4 21.0 .258  71
2020 02 29 02  09 32 10.695   +18 39 14.33  .05921 1.0462 159.3 21.0 .265  70
2020 02 29 03  09 32 22.283   +18 41 38.77  .05939 1.0464 159.3 21.0 .272  69
2020 02 29 04  09 32 33.814   +18 44 02.24  .05957 1.0466 159.3 21.0 .280  68
2020 02 29 05  09 32 45.287   +18 46 24.75  .05975 1.0468 159.3 21.0 .287  67
2020 02 29 06  09 32 56.702   +18 48 46.32  .05993 1.0469 159.3 21.0 .295  66
2020 02 29 07  09 33 08.062   +18 51 06.94  .06011 1.0471 159.2 21.0 .302  65
2020 02 29 08  09 33 19.365   +18 53 26.63  .06029 1.0473 159.2 21.0 .310  64
2020 02 29 09  09 33 30.612   +18 55 45.39  .06047 1.0474 159.2 21.0 .318  64
2020 02 29 10  09 33 41.804   +18 58 03.24  .06065 1.0476 159.2 21.0 .326  63
2020 02 29 11  09 33 52.942   +19 00 20.17  .06083 1.0478 159.2 21.0 .334  62
2020 02 29 12  09 34 04.024   +19 02 36.20  .06101 1.0480 159.1 21.1 .343  61
2020 02 29 13  09 34 15.053   +19 04 51.34  .06119 1.0481 159.1 21.1 .351  61
2020 02 29 14  09 34 26.029   +19 07 05.58  .06137 1.0483 159.1 21.1 .359  60
2020 02 29 15  09 34 36.951   +19 09 18.94  .06156 1.0485 159.1 21.1 .368  59
2020 02 29 16  09 34 47.821   +19 11 31.43  .06174 1.0486 159.0 21.1 .376  59
2020 02 29 17  09 34 58.638   +19 13 43.05  .06192 1.0488 159.0 21.1 .385  58
2020 02 29 18  09 35 09.404   +19 15 53.81  .06210 1.0490 159.0 21.1 .394  58
2020 02 29 19  09 35 20.117   +19 18 03.72  .06228 1.0492 159.0 21.1 .403  57
2020 02 29 20  09 35 30.780   +19 20 12.77  .06246 1.0493 158.9 21.1 .412  57
2020 02 29 21  09 35 41.392   +19 22 20.99  .06264 1.0495 158.9 21.1 .421  56
2020 02 29 22  09 35 51.954   +19 24 28.38  .06283 1.0497 158.9 21.1 .430  56
2020 02 29 23  09 36 02.466   +19 26 34.94  .06301 1.0499 158.9 21.1 .439  55
2020 03 01 00  09 36 12.928   +19 28 40.67  .06319 1.0500 158.9 21.1 .448  55
2020 03 01 01  09 36 23.342   +19 30 45.60  .06337 1.0502 158.8 21.1 .457  54
2020 03 01 02  09 36 33.706   +19 32 49.71  .06355 1.0504 158.8 21.2 .467  54